SPACEMOBILE-009

Last updated on Mon Sep 21 2026 00:02:09 GMT+0000 (Coordinated Universal Time)

1 69590U 26139B 26262.94743596 .00001430 00000+0 97180-4 0 9991 2 69590 52.9943 192.3576 0002715 241.1599 118.9120 15.12884185 14327
UTC large
Height (km)
Speed (km/s)
/
Latitude / Longitude
Inclination (degrees)
Orbital Period (minutes)
Azimuth
Elevation
Range (km)
Doppler Factor

Next 0 passes for location: London (51.5072 / 0.1276)

No passes found over London.
SPACEMOBILE-009